OPS 4682 DEB, 38439

Orbit data source: Space-Track

OPS 4682 DEB, 38439 is space debris in LEO originally from a launch on Sat, 03 Apr 1965 UTC launched from the Air Force Western Test Range (AFWTR). Debris objects in space refer to the collection of defunct objects orbiting the Earth. Examples of debris include non-operational satellites, rocket bodies, and fragments generated from explosions, collisions, or faulty payload assembly.

Loading next visibility...
Identifier
38439, 1965-027EU
Orbit
LEO
Country
Flag of USUS
Related business
Manufacturer
Unknown
Mission
Spacecraft
Bus & Motor
Unknown
Mass
Unknown
Launch date (UTC)
1965-04-03 (61 years ago)
Launch vehicle
Unknown
Launch site
Air Force Western Test Range (AFWTR)
Object type
Payload
Rocket body
Debris
Shape & HBR
Unknown shape, 0.1 m
Radar Cross Section
Medium (>0.1 m² and <1 m²)

Expand to show TLE details & history
Last TLE update: 2 days ago

TLE from 2 days ago
0 OPS 4682 DEB
1 38439U 65027EU  26174.32786564 -.00000312  00000-0 -10579-2 0  9990
2 38439  90.3050  36.0995 0037764  19.4543 340.8010 12.99967913665583
Epoch: 2026-06-23T07:52Z
TLE epoch observation values (Epoch: 2026-06-23T07:52:07.591Z)
Latitude
-0.00007°
Longitude
6.56686°
Altitude
1,237.854 km
Speed
7.249 km/s
True Right ascension
02h 24m 23s
True Declination
0° 00' 00"
Sunlit
Object was in daylight at epoch
Visualization orbit readout
Latitude
Unknown
Longitude
Unknown
Altitude
Unknown
Speed
Unknown
Apparent Right ascension
Unknown
Apparent Declination
Unknown
Sunlit
N/A
Visualization observer readout
Local Sidereal Time
17:01:27
Azimuth
Unknown
Elevation
Unknown
Doppler factor
Unknown
Orbital elements
Apogee altitude
1,288.182 km
Perigee altitude
1,230.497 km
Semi-major axis
7,637.476 km
Eccentricity
0.00378
Inclination
90.305°
RAAN
36.0995°
Arg. of periapsis
19.4543°
True anomaly
340.65806°
Mean anomaly
340.801°
Eccentric anomaly
340.72959°
Mean motion
3.25176 °/min
Orbital period
110.71 mins
BSTAR
-0.0010579
Loading maneuver chart data...
Computing Atmospheric mass density...
Loading historical data...
Loading historical data...
Loading historical data...
Loading historical data...
Loading historical data...
Loading historical data...
Loading historical data...

Documentation

Showing up to 5 results
|